Colby, KS

3:42 AM CST on November 22, 2019 (GMT -0600)
Shaltz

Weather History for KCBK - October, 2019

Change the Weather History Date:

Monday, October 21, 2019

  Actual Average (WUND) Record (WUND)
Temperature  
Mean Temperature 44 °F -  
Max Temperature 53 °F - - (-1)
Min Temperature 32 °F - - (-1)
Degree Days  
Heating Degree Days 21    
Moisture  
Dew Point 19 °F    
Average Humidity 40    
Maximum Humidity 70    
Minimum Humidity 15    
Precipitation  
Precipitation 0.00 in - - ()
Sea Level Pressure  
Sea Level Pressure 29.87 in    
Wind  
Wind Speed 27 mph (NW)    
Max Wind Speed 36 mph    
Max Gust Speed 50 mph    
Visibility 10 miles    
Events      
Averages and records for this station are not official NWS values.
T = Trace of Precipitation, MM = Missing Value Source: NWS Daily Summary

Daily Weather History Graph

Daily Weather History Graph

Search for Another Location

Airport or City:

Astronomy

Oct. 21, 2019 Rise Set
Actual Time 8:00 AM CDT 6:56 PM CDT
Civil Twilight 7:32 AM CDT 7:24 PM CDT
Nautical Twilight 7:01 AM CDT 7:55 PM CDT
Astronomical Twilight 6:30 AM CDT 8:26 PM CDT
Moon 12:10 AM CDT (10/21) 3:18 PM CDT (10/21)
Length of Visible Light 11h 51m
Length of Day
10h 56m
Waning Gibbous, 48% of the Moon is Illuminated
Oct 21
Waning Gibbous
Oct 27
New
Nov 4
First Quarter
Nov 12
Full
Nov 19
Last Quarter

Hourly Weather History & Observations

Time (CDT) Temp. Windchill Dew Point Humidity Pressure Visibility Wind Dir Wind Speed Gust Speed Precip Events Conditions
12:15 AM 42.8 °F 31.9 °F 28.4 °F 57% 29.72 in 10.0 mi NW 32.2 mph 49.5 mph N/A   Clear
12:35 AM 42.8 °F 31.6 °F 28.4 °F 57% 29.72 in 10.0 mi NW 34.5 mph 49.5 mph N/A   Clear
12:55 AM 42.8 °F 31.8 °F 28.4 °F 57% 29.71 in 10.0 mi NW 33.4 mph 49.5 mph N/A   Clear
1:15 AM 42.8 °F 31.4 °F 28.4 °F 57% 29.71 in 10.0 mi NW 35.7 mph 49.5 mph N/A   Clear
1:35 AM 42.8 °F 32.3 °F 28.4 °F 57% 29.72 in 10.0 mi NW 29.9 mph 38.0 mph N/A   Clear
1:55 AM 42.8 °F 33.1 °F 28.4 °F 57% 29.73 in 10.0 mi NW 25.3 mph 39.1 mph N/A   Clear
2:15 AM 41.0 °F 30.2 °F 28.4 °F 61% 29.73 in 10.0 mi WNW 27.6 mph 40.3 mph N/A   Clear
2:55 AM 41.0 °F 30.5 °F 28.4 °F 61% 29.74 in 10.0 mi WNW 26.5 mph 36.8 mph N/A   Clear
3:35 AM 41.0 °F 30.0 °F 28.4 °F 61% 29.74 in 10.0 mi NW 28.8 mph 42.6 mph N/A   Clear
4:35 AM 41.0 °F 29.8 °F 28.4 °F 61% 29.75 in 10.0 mi WNW 29.9 mph 41.4 mph N/A   Clear
4:55 AM 41.0 °F 30.5 °F 28.4 °F 61% 29.76 in 10.0 mi WNW 26.5 mph 39.1 mph N/A   Clear
5:15 AM 41.0 °F 30.0 °F 28.4 °F 61% 29.77 in 10.0 mi WNW 28.8 mph 38.0 mph N/A   Clear
5:55 AM 39.2 °F 29.0 °F 28.4 °F 65% 29.78 in 10.0 mi WNW 21.9 mph 32.2 mph N/A   Clear
6:15 AM 39.2 °F 29.0 °F 28.4 °F 65% 29.78 in 10.0 mi WNW 21.9 mph 32.2 mph N/A   Clear
6:35 AM 39.2 °F 28.3 °F 28.4 °F 65% 29.78 in 10.0 mi WNW 25.3 mph 36.8 mph N/A   Clear
6:55 AM 37.4 °F 26.9 °F 28.4 °F 70% 29.79 in 10.0 mi WNW 20.7 mph 33.4 mph N/A   Clear
7:15 AM 37.4 °F 26.9 °F 26.6 °F 65% 29.79 in 10.0 mi WNW 20.7 mph 28.8 mph N/A   Clear
7:35 AM 37.4 °F 26.6 °F 26.6 °F 65% 29.79 in 10.0 mi WNW 21.9 mph 29.9 mph N/A   Clear
7:55 AM 37.4 °F 25.9 °F 26.6 °F 65% 29.79 in 10.0 mi WNW 25.3 mph 32.2 mph N/A   Clear
8:15 AM 39.2 °F 29.3 °F 26.6 °F 61% 29.79 in 10.0 mi WNW 20.7 mph 32.2 mph N/A   Clear
8:35 AM 41.0 °F 30.7 °F 24.8 °F 53% 29.79 in 10.0 mi WNW 25.3 mph 34.5 mph N/A   Clear
8:55 AM 41.0 °F 30.2 °F 23.0 °F 49% 29.80 in 10.0 mi NW 27.6 mph 38.0 mph N/A   Clear
9:15 AM 42.8 °F 32.7 °F 23.0 °F 46% 29.81 in 10.0 mi NW 27.6 mph 42.6 mph N/A   Clear
9:35 AM 42.8 °F 31.4 °F 23.0 °F 46% 29.82 in 10.0 mi NW 35.7 mph 42.6 mph N/A   Clear
9:55 AM 44.6 °F 34.9 °F 23.0 °F 43% 29.82 in 10.0 mi NW 28.8 mph 44.9 mph N/A   Clear
10:35 AM 46.4 °F 36.9 °F 19.4 °F 34% 29.84 in 10.0 mi NW 32.2 mph 41.4 mph N/A   Clear
10:55 AM 46.4 °F 36.5 °F 17.6 °F 32% 29.84 in 10.0 mi NW 34.5 mph 47.2 mph N/A   Clear
11:15 AM 48.2 °F - 15.8 °F 27% 29.84 in 10.0 mi NW 29.9 mph 40.3 mph N/A   Clear
11:35 AM 50.0 °F - 15.8 °F 26% 29.84 in 10.0 mi NW 32.2 mph 43.7 mph N/A   Clear
11:55 AM 50.0 °F - 14.0 °F 24% 29.84 in 10.0 mi NW 31.1 mph 43.7 mph N/A   Clear
12:15 PM 50.0 °F - 12.2 °F 22% 29.85 in 10.0 mi NW 29.9 mph 44.9 mph N/A   Clear
12:35 PM 51.8 °F - 12.2 °F 21% 29.86 in 10.0 mi NW 33.4 mph 49.5 mph N/A   Clear
1:15 PM 51.8 °F - 8.6 °F 18% 29.87 in 10.0 mi NNW 29.9 mph 40.3 mph N/A   Clear
1:35 PM 53.6 °F - 8.6 °F 16% 29.87 in 10.0 mi NW 29.9 mph 42.6 mph N/A   Clear
1:55 PM 53.6 °F - 6.8 °F 15% 29.88 in 10.0 mi NNW 33.4 mph 43.7 mph N/A   Clear
2:15 PM 53.6 °F - 6.8 °F 15% 29.88 in 10.0 mi NNW 31.1 mph 47.2 mph N/A   Clear
2:35 PM 53.6 °F - 6.8 °F 15% 29.88 in 10.0 mi NW 33.4 mph 41.4 mph N/A   Clear
2:55 PM 53.6 °F - 8.6 °F 16% 29.89 in 10.0 mi NW 33.4 mph 40.3 mph N/A   Clear
3:15 PM 53.6 °F - 8.6 °F 16% 29.89 in 10.0 mi NW 29.9 mph 39.1 mph N/A   Clear
3:35 PM 53.6 °F - 8.6 °F 16% 29.90 in 10.0 mi NW 26.5 mph 40.3 mph N/A   Clear
3:55 PM 53.6 °F - 8.6 °F 16% 29.90 in 10.0 mi NW 29.9 mph 40.3 mph N/A   Clear
4:15 PM 53.6 °F - 10.4 °F 18% 29.91 in 10.0 mi NW 32.2 mph 43.7 mph N/A   Clear
4:35 PM 53.6 °F - 10.4 °F 18% 29.92 in 10.0 mi NNW 25.3 mph 38.0 mph N/A   Clear
4:55 PM 51.8 °F - 12.2 °F 21% 29.93 in 10.0 mi NW 27.6 mph 38.0 mph N/A   Clear
5:15 PM 51.8 °F - 12.2 °F 21% 29.94 in 10.0 mi NNW 28.8 mph 35.7 mph N/A   Clear
5:35 PM 51.8 °F - 12.2 °F 21% 29.95 in 10.0 mi NW 19.6 mph 35.7 mph N/A   Clear
5:55 PM 50.0 °F - 12.2 °F 22% 29.95 in 10.0 mi NW 26.5 mph 33.4 mph N/A   Clear
6:15 PM 50.0 °F - 14.0 °F 24% 29.97 in 10.0 mi NNW 20.7 mph 34.5 mph N/A   Clear
6:35 PM 48.2 °F - 14.0 °F 25% 29.97 in 10.0 mi NNW 18.4 mph 27.6 mph N/A   Clear
6:55 PM 46.4 °F 40.4 °F 14.0 °F 27% 29.98 in 10.0 mi NW 13.8 mph - N/A   Clear
7:15 PM 44.6 °F 38.1 °F 14.0 °F 29% 29.99 in 10.0 mi NNW 13.8 mph - N/A   Clear
7:35 PM 44.6 °F 38.8 °F 14.0 °F 29% 30.00 in 10.0 mi NW 11.5 mph - N/A   Clear
7:55 PM 42.8 °F 37.5 °F 14.0 °F 31% 30.01 in 10.0 mi NW 9.2 mph - N/A   Clear
8:15 PM 41.0 °F 35.2 °F 15.8 °F 36% 30.02 in 10.0 mi NW 9.2 mph - N/A   Clear
8:35 PM 41.0 °F 34.7 °F 15.8 °F 36% 30.03 in 10.0 mi NW 10.4 mph - N/A   Clear
8:55 PM 41.0 °F 34.3 °F 15.8 °F 36% 30.03 in 10.0 mi NW 11.5 mph - N/A   Clear
9:15 PM 41.0 °F 34.7 °F 15.8 °F 36% 30.03 in 10.0 mi NW 10.4 mph - N/A   Clear
9:35 PM 39.2 °F 32.5 °F 17.6 °F 42% 30.04 in 10.0 mi NW 10.4 mph - N/A   Clear
9:55 PM 39.2 °F 33.0 °F 17.6 °F 42% 30.04 in 10.0 mi NW 9.2 mph - N/A   Clear
10:15 PM 37.4 °F 31.4 °F 17.6 °F 45% 30.05 in 10.0 mi NW 8.1 mph - N/A   Clear
10:35 PM 37.4 °F 30.3 °F 19.4 °F 48% 30.06 in 10.0 mi WNW 10.4 mph - N/A   Clear
10:55 PM 35.6 °F 28.6 °F 17.6 °F 48% 30.07 in 10.0 mi West 9.2 mph - N/A   Clear
11:55 PM 32.0 °F 24.8 °F 19.4 °F 60% 30.08 in 10.0 mi West 8.1 mph - N/A   Clear